COSMOS 1275 DEB, 12674

Orbit data source: Space-Track

COSMOS 1275 DEB, 12674 is space debris in LEO originally from a launch on Thu, 04 Jun 1981 UTC launched from the Plesetsk Missile And Space Complex (PKMTR). Debris objects in space refer to the collection of defunct objects orbiting the Earth. Examples of debris include non-operational satellites, rocket bodies, and fragments generated from explosions, collisions, or faulty payload assembly.

Loading next visibility...
Identifier
12674, 1981-053AE
Orbit
LEO
Country
Flag of CISCIS
Related business
Manufacturer
Unknown
Mission
Spacecraft
Bus & Motor
Unknown
Mass
Unknown
Launch date (UTC)
1981-06-04 (44 years ago)
Launch vehicle
Unknown
Launch site
Plesetsk Missile And Space Complex (PKMTR)
Object type
Payload
Rocket body
Debris
Shape & HBR
Unknown shape, 0.2 m
Radar Cross Section
Medium (>0.1 m² and <1 m²)

Expand to show TLE details & history
Last TLE update: 1 day ago

TLE from 1 day ago
0 COSMOS 1275 DEB
1 12674U 81053AE  25310.62530414  .00000608  00000-0  60240-3 0  9992
2 12674  82.9368 171.3856 0099969 244.3338 143.6928 13.74805534209248
Epoch: 2025-11-06T15:00Z
TLE epoch observation values (Epoch: 2025-11-06T15:00:26.277Z)
Latitude
28.50311°
Longitude
-95.96674°
Altitude
1,045.444 km
Speed
7.302 km/s
True Right ascension
11h 40m 53s
True Declination
28° 21' 53"
Sunlit
Object was in daylight at epoch
Visualization orbit readout
Latitude
Unknown
Longitude
Unknown
Altitude
Unknown
Speed
Unknown
Apparent Right ascension
Unknown
Apparent Declination
Unknown
Sunlit
N/A
Visualization observer readout
Local Sidereal Time
17:55:40
Azimuth
Unknown
Elevation
Unknown
Doppler factor
Unknown
Orbital elements
Apogee altitude
1,053.071 km
Perigee altitude
905.964 km
Semi-major axis
7,357.655 km
Eccentricity
0.01
Inclination
82.9368°
RAAN
171.3856°
Arg. of periapsis
244.3338°
True anomaly
144.36432°
Mean anomaly
143.6928°
Eccentric anomaly
144.02924°
Mean motion
3.43901 °/min
Orbital period
104.68 mins
BSTAR
0.0006024
Loading maneuver chart data...
Computing Atmospheric mass density...
Loading historical data...
Loading historical data...
Loading historical data...
Loading historical data...
Loading historical data...
Loading historical data...
Loading historical data...

Documentation

Showing up to 5 results
|